[[{"header":{"parameterUnit":"m.s-1","parameterCategory":1,"la1":30.2991,"la2":30.254,"lo1":-89.0895,"lo2":-89.0444,"dy":0.0017,"dx":0.0017,"nx":28,"ny":28,"refTime":"2025-01-04T03:00:00:Z","depth":0,"parameterNumber":2,"parameterNumberName":"U-component_of_WINDS"},"data":[0,0,0,0,0,0,0,0,0,0,0,0,0,0,0,0,0,0,0,0,0,0,0,0,0,0,0,0,0,0,0,0,0,0,0,0,0,0,0,0,0,0,0,0,0,0,0,0,0,0,0,0,0,0,0,0,0,0,-6.0673,-6.0674,0,-6.0744,-6.0745,-6.0746,-6.0693,-6.0691,-6.0689,-6.0686,-6.0757,-6.0761,-6.0765,0,0,0,0,0,0,0,0,0,0,0,0,0,-6.0491,-6.0494,-6.0673,-6.0674,-6.0675,-6.0744,-6.0745,-6.0746,-6.0694,-6.0691,-6.0688,-6.0685,-6.0756,-6.0761,-6.0766,0,0,0,0,0,0,0,0,0,0,0,0,0,-6.0567,-6.0495,-6.0673,-6.0657,-6.0656,-6.0744,-6.0745,-6.0746,-6.0694,-6.0691,-6.0687,-6.0684,-6.0755,-6.076,-6.0766,-6.0873,0,0,-6.0785,-6.0787,0,0,0,0,0,0,0,0,-6.0562,-6.0573,-6.0658,-6.0658,-6.0658,-6.0706,-6.0707,-6.0788,-6.0695,-6.068,-6.0686,-6.0682,-6.0743,-6.075,-6.0771,-6.0876,-6.0879,-6.0785,-6.0789,-6.0792,-6.0793,0,0,0,0,0,0,0,-6.0557,-6.057,-6.0701,-6.066,-6.0659,-6.0646,-6.0653,-6.0722,-6.073,-6.0681,-6.0677,-6.0686,-6.0742,-6.0765,-6.0772,-6.088,-6.0785,-6.0791,-6.0794,-6.0797,-6.1074,-6.1077,0,0,0,0,0,0,-6.0554,-6.0566,-6.0699,-6.0703,-6.0601,-6.0652,-6.066,-6.0694,-6.0729,-6.0731,-6.0689,-6.0684,-6.0756,-6.0765,-6.0774,-6.0898,-6.0792,-6.0797,-6.0801,-6.107,-6.1075,-6.1079,0,0,0,0,0,0,-6.055,-6.0566,-6.0696,-6.0634,-6.0649,-6.0659,-6.0698,-6.0697,-6.072,-6.0735,-6.0736,-6.0711,-6.0754,-6.0766,-6.0848,-6.09,-6.08,-6.0805,-6.1066,-6.1072,-6.1077,-6.1148,0,0,0,0,0,0,-6.0545,-6.0565,-6.0605,-6.0635,-6.0653,-6.0769,-6.0701,-6.0701,-6.0731,-6.0724,-6.0756,-6.0758,-6.0752,-6.0839,-6.0854,-6.0906,-6.081,-6.1061,-6.1068,-6.1075,-6.1141,-6.1156,-6.1168,0,0,0,0,0,-6.0538,-6.0623,-6.0608,-6.0624,-6.0704,-6.0772,-6.0782,-6.0774,-6.0735,-6.0775,-6.0785,-6.0757,-6.0893,-6.0848,-6.0864,-6.0919,-6.1058,-6.1066,-6.1074,-6.1135,-6.1153,-6.1168,0,0,0,0,0,0,-6.0598,-6.0626,-6.061,-6.0706,-6.0737,-6.0763,-6.0813,-6.0793,-6.0835,-6.0827,-6.0816,-6.0823,-6.0909,-6.0923,-6.0873,-6.1023,-6.0969,-6.0981,-6.101,-6.1027,-6.104,-6.1032,-6.0815,0,0,0,0,0,-6.0623,-6.0677,-6.0698,-6.0781,-6.0798,-6.0804,-6.0833,-6.0825,-6.0856,-6.0868,-6.0884,-6.0915,-6.0965,-6.0997,-6.1044,-6.1145,-6.115,-6.1191,-6.1204,-6.1215,-6.1224,-6.1276,-6.1294,-6.1106,-6.1106,-6.1106,0,0,-6.0674,-6.0696,-6.073,-6.0794,-6.0817,-6.0871,-6.0815,-6.0875,-6.0915,-6.0877,-6.0955,-6.0969,-6.1002,-6.1094,-6.1135,-6.1108,-6.1278,-6.1226,-6.1235,-6.1238,-6.1287,-6.1305,-6.132,-6.1112,-6.1111,-6.111,0,0,-6.0793,-6.0817,-6.0887,-6.0912,-6.0948,-6.0951,-6.0968,-6.0998,-6.1005,-6.1084,-6.1055,-6.1104,-6.119,-6.1214,-6.1238,-6.1369,-6.1343,-6.1385,-6.1453,-6.1504,-6.1519,-6.1532,-6.1575,-6.1591,-6.1395,-6.1396,-6.1396,0,-6.0851,-6.0933,-6.0926,-6.0988,-6.1016,-6.0986,-6.1057,-6.1081,-6.113,-6.115,-6.112,-6.1227,-6.1248,-6.1343,-6.1375,-6.1397,-6.1415,-6.1379,-6.1518,-6.153,-6.1542,-6.1583,-6.16,-6.14,-6.14,-6.1399,-6.1399,0,-6.1001,-6.1058,-6.1111,-6.1159,-6.1194,-6.126,-6.1263,-6.1299,-6.1288,-6.1295,-6.1375,-6.1399,-6.1449,-6.1473,-6.1463,-6.1567,-6.1549,-6.1519,-6.1463,-6.1565,-6.1603,-6.1619,-6.1406,-6.1405,-6.1403,-6.1402,0,0,-6.1155,-6.1201,-6.1219,-6.124,-6.1279,-6.1322,-6.1388,-6.1438,-6.1467,-6.1504,-6.1556,-6.1631,-6.1603,-6.163,-6.1624,-6.167,-6.1768,-6.1634,-6.1634,-6.1654,-6.188,-6.1899,-6.1918,-6.1753,-6.1756,-6.1759,-6.1876,0,-6.1273,-6.1386,-6.1383,-6.1488,-6.1539,-6.1513,-6.157,-6.1599,-6.1608,-6.1652,-6.1662,-6.1714,-6.1676,-6.1691,-6.1736,-6.1746,-6.1812,-6.1739,-6.1799,-6.1802,-6.1786,-6.1938,-6.1958,-6.2067,-6.1891,-6.1894,-6.1896,0,-6.1425,-6.1466,-6.1576,-6.1606,-6.1628,-6.1678,-6.1723,-6.1768,-6.18,-6.1804,-6.1835,-6.1821,-6.1887,-6.1834,-6.1922,-6.1872,-6.1898,-6.1907,-6.1911,-6.1912,-6.1851,-6.1939,-6.2103,-6.2117,-6.192,-6.1918,-6.1916,0,-6.1522,-6.1605,-6.1681,-6.17,-6.1738,-6.1774,-6.1792,-6.1822,-6.1852,-6.1892,-6.191,-6.1958,-6.1983,-6.202,-6.2019,-6.1981,-6.2108,-6.2055,-6.2109,-6.2109,-6.2133,-6.213,-6.2298,-6.2158,-6.2158,-6.2157,-6.2157,0,-6.1651,-6.1718,-6.1724,-6.177,-6.1845,-6.1842,-6.1915,-6.1929,-6.1956,-6.2004,-6.1986,-6.2031,-6.203,-6.2076,-6.2077,-6.2148,-6.2161,-6.2163,-6.2162,-6.2162,-6.2161,-6.2175,-6.2165,-6.2162,-6.2161,-6.216,-6.2159,0,-6.1769,-6.1776,-6.1856,-6.1887,-6.1896,-6.1949,-6.1975,-6.2018,-6.2027,-6.2088,-6.2102,-6.2114,-6.2168,-6.2172,-6.2234,-6.2234,-6.232,-6.2313,-6.2308,-6.2305,-6.2358,-6.2351,-6.2536,-6.2559,-6.2408,-6.241,-6.2411,0,-6.1848,-6.1899,-6.1935,-6.1966,-6.1985,-6.2036,-6.2066,-6.2066,-6.2099,-6.2141,-6.2179,-6.2231,-6.2271,-6.2358,-6.2372,-6.2419,-6.241,-6.2472,-6.2416,-6.2415,-6.2405,-6.24,-6.2404,-6.248,-6.2482,-6.2483,-6.2484,0,-6.1986,-6.1988,-6.2033,-6.208,-6.2117,-6.2154,-6.2188,-6.2214,-6.2218,-6.2256,-6.231,-6.2342,-6.2405,-6.2456,-6.2503,-6.252,-6.2502,-6.2503,-6.2517,-6.2515,-6.2509,-6.2509,-6.2332,-6.2497,-6.2496,-6.2495,-6.2494,-6.2494,-6.2084,-6.2128,-6.216,-6.221,-6.2237,-6.2269,-6.2311,-6.2325,-6.2371,-6.2422,-6.242,-6.2479,-6.2511,-6.2572,-6.2594,-6.2639,-6.2618,-6.264,-6.2645,-6.2649,-6.2652,-6.2506,-6.2649,-6.2648,-6.2648,-6.2648,-6.2648,0,-6.2218,-6.2238,-6.2285,-6.2333,-6.2373,-6.2356,-6.2393,-6.2427,-6.248,-6.2512,-6.2553,-6.2615,-6.2664,-6.2684,-6.2732,-6.2765,-6.2758,-6.2777,-6.2772,-6.2776,-6.267,-6.2651,-6.2782,-6.2782,-6.2782,-6.2782,-6.2782,-6.2782,-6.2292,-6.2363,-6.2369,-6.2454,-6.2473,-6.2531,-6.2553,-6.2583,-6.2608,-6.2679,-6.272,-6.2733,-6.276,-6.281,-6.2854,-6.2859,-6.2875,-6.2898,-6.2898,-6.2798,-6.2784,-6.2771,-6.2752,-6.2902,-6.2903,-6.2999,-6.3,-6.3001]},{"header":{"parameterUnit":"m.s-1","parameterCategory":1,"la1":30.2991,"la2":30.254,"lo1":-89.0895,"lo2":-89.0444,"dy":0.0017,"dx":0.0017,"nx":28,"ny":28,"refTime":"2025-01-04T03:00:00:Z","depth":0,"parameterNumber":3,"parameterNumberName":"V-component_of_WINDS"},"data":[0,0,0,0,0,0,0,0,0,0,0,0,0,0,0,0,0,0,0,0,0,0,0,0,0,0,0,0,0,0,0,0,0,0,0,0,0,0,0,0,0,0,0,0,0,0,0,0,0,0,0,0,0,0,0,0,0,0,2.0861,2.0863,0,2.1038,2.104,2.1042,2.1043,2.1041,2.1039,2.1037,2.1223,2.123,2.1237,0,0,0,0,0,0,0,0,0,0,0,0,0,2.0531,2.0537,2.0861,2.0863,2.0866,2.1038,2.1041,2.1043,2.1044,2.1041,2.1038,2.1036,2.1221,2.1229,2.1237,0,0,0,0,0,0,0,0,0,0,0,0,0,2.0688,2.0539,2.0861,2.0887,2.0891,2.1038,2.1041,2.1044,2.1044,2.1041,2.1038,2.1034,2.1218,2.1228,2.1239,2.1373,0,0,2.1271,2.1276,0,0,0,0,0,0,0,0,2.0679,2.07,2.0881,2.0885,2.089,2.1015,2.0992,2.1154,2.1045,2.0986,2.1037,2.1033,2.1157,2.1172,2.1213,2.1382,2.139,2.1272,2.1278,2.1283,2.1286,0,0,0,0,0,0,0,2.0668,2.0693,2.0931,2.0883,2.0889,2.0892,2.091,2.1023,2.1089,2.0991,2.0992,2.1012,2.1159,2.1203,2.1218,2.1392,2.1272,2.1281,2.1288,2.1292,2.1685,2.1689,0,0,0,0,0,0,2.0651,2.0683,2.0926,2.0937,2.0774,2.0901,2.0921,2.0979,2.1088,2.1101,2.1015,2.1012,2.1186,2.1205,2.1224,2.1391,2.1283,2.1293,2.1299,2.1681,2.1686,2.169,0,0,0,0,0,0,2.0644,2.0673,2.0919,2.081,2.0842,2.091,2.0974,2.0984,2.1028,2.1106,2.1118,2.1048,2.1185,2.1209,2.1337,2.1398,2.1298,2.1307,2.1676,2.1682,2.1688,2.1725,0,0,0,0,0,0,2.0635,2.067,2.072,2.0811,2.0848,2.1026,2.0978,2.099,2.1046,2.1043,2.1139,2.1152,2.1184,2.1321,2.1347,2.1411,2.1316,2.1671,2.1679,2.1686,2.1718,2.1731,2.1742,0,0,0,0,0,2.0623,2.0723,2.0722,2.0752,2.0911,2.1029,2.105,2.1083,2.105,2.1103,2.1153,2.1149,2.1387,2.1334,2.1364,2.1431,2.1667,2.1676,2.1685,2.1713,2.1729,2.1742,0,0,0,0,0,0,2.0638,2.0736,2.0736,2.0868,2.094,2.1029,2.1095,2.1098,2.1182,2.1176,2.1215,2.1237,2.1365,2.1411,2.135,2.1569,2.1523,2.1539,2.1534,2.155,2.1562,2.1548,2.1325,0,0,0,0,0,2.0656,2.0742,2.0824,2.0934,2.097,2.1027,2.1079,2.1099,2.1176,2.1206,2.1266,2.1343,2.1435,2.1495,2.1584,2.1725,2.1748,2.1787,2.1799,2.1808,2.1821,2.1904,2.1923,2.172,2.172,2.172,0,0,2.0696,2.076,2.0812,2.0938,2.0996,2.1087,2.1052,2.1149,2.1218,2.1222,2.1346,2.1393,2.1481,2.1617,2.168,2.1659,2.1883,2.182,2.1827,2.1835,2.1915,2.1934,2.1951,2.1726,2.1725,2.1724,0,0,2.0815,2.0871,2.0969,2.1029,2.1117,2.1155,2.1179,2.1269,2.13,2.1425,2.1431,2.1515,2.1671,2.1735,2.1788,2.1936,2.1936,2.1964,2.2027,2.2106,2.2122,2.2137,2.2192,2.2211,2.1977,2.1977,2.1977,0,2.0853,2.0988,2.102,2.1118,2.1175,2.1183,2.1285,2.1342,2.1456,2.1496,2.1471,2.1671,2.1731,2.1883,2.192,2.1961,2.1993,2.1953,2.2117,2.2132,2.2146,2.2199,2.222,2.198,2.1979,2.1979,2.1979,0,2.1033,2.1127,2.1197,2.1306,2.1371,2.147,2.152,2.1583,2.1598,2.1639,2.1769,2.1841,2.1946,2.1984,2.1999,2.2141,2.2125,2.2108,2.2063,2.2168,2.2219,2.2239,2.1984,2.1983,2.1982,2.1981,0,0,2.1164,2.1292,2.1317,2.1368,2.1468,2.1543,2.1645,2.1747,2.1801,2.1881,2.1969,2.2104,2.209,2.215,2.2173,2.2243,2.2359,2.2218,2.2221,2.2244,2.2523,2.2536,2.2559,2.236,2.2364,2.2367,2.2517,0,2.1295,2.1474,2.1508,2.1665,2.1754,2.1765,2.1854,2.1927,2.1969,2.2054,2.2101,2.2197,2.217,2.2207,2.2276,2.233,2.2416,2.2319,2.2446,2.245,2.2424,2.2585,2.2599,2.2736,2.2536,2.254,2.2542,0,2.1471,2.1555,2.172,2.1812,2.1851,2.193,2.2029,2.2108,2.2193,2.2219,2.2288,2.2304,2.2414,2.2364,2.2518,2.2451,2.2506,2.254,2.2547,2.2561,2.2503,2.2606,2.278,2.2802,2.2573,2.2571,2.2569,0,2.1553,2.1708,2.1828,2.1871,2.198,2.2036,2.2084,2.2165,2.2226,2.2313,2.2353,2.2452,2.2507,2.2585,2.2629,2.2588,2.2781,2.2733,2.2809,2.2808,2.2849,2.2846,2.3037,2.2881,2.2881,2.2881,2.288,0,2.1697,2.1799,2.1866,2.194,2.2056,2.2095,2.221,2.2258,2.233,2.2416,2.2432,2.2513,2.2565,2.2655,2.269,2.2814,2.2838,2.2865,2.2873,2.2864,2.2861,2.2901,2.2893,2.2886,2.2885,2.2884,2.2883,0,2.1808,2.1857,2.1989,2.2082,2.2108,2.2189,2.227,2.2345,2.2388,2.2497,2.2525,2.2594,2.27,2.2752,2.2884,2.2908,2.3049,2.3051,2.3021,2.3024,2.3097,2.3091,2.3322,2.3355,2.3175,2.3177,2.3178,0,2.1897,2.1975,2.2077,2.2135,2.2185,2.2278,2.2341,2.2384,2.2449,2.2553,2.2616,2.2722,2.281,2.298,2.3044,2.3146,2.3152,2.3226,2.3167,2.3157,2.3156,2.3151,2.3161,2.3236,2.3238,2.3239,2.3241,0,2.205,2.2072,2.2159,2.2258,2.2332,2.2411,2.2489,2.2537,2.2594,2.2666,2.2775,2.2843,2.2979,2.3086,2.3194,2.3246,2.3255,2.3259,2.3282,2.3274,2.3255,2.3269,2.3051,2.3253,2.3252,2.3251,2.325,2.325,2.2155,2.2226,2.231,2.2409,2.2473,2.2547,2.2622,2.2675,2.2766,2.2879,2.29,2.3016,2.3103,2.3248,2.3305,2.3399,2.3382,2.3415,2.3424,2.3432,2.3437,2.3238,2.3418,2.3418,2.3418,2.3417,2.3417,0,2.2311,2.2366,2.2457,2.2566,2.2645,2.2644,2.2732,2.2799,2.2901,2.298,2.3067,2.3194,2.3299,2.3372,2.348,2.3541,2.3548,2.3568,2.3565,2.3578,2.3444,2.3414,2.3561,2.3561,2.3561,2.3561,2.3561,2.3561,2.2402,2.2524,2.2556,2.2712,2.2767,2.288,2.2931,2.3,2.3064,2.3205,2.3292,2.3338,2.3417,2.3531,2.3629,2.3648,2.3688,2.3709,2.3728,2.3602,2.3587,2.3572,2.3545,2.3717,2.3717,2.3854,2.3856,2.3857]}]]